Year,Month,Day,Hour,Minute,Value (Times are PST for temperature in C)
2007,07,06,00,00,11.70
2007,07,06,00,01,11.70
2007,07,06,00,02,11.70
2007,07,06,00,03,11.70
2007,07,06,00,04,11.70
2007,07,06,00,05,11.70
2007,07,06,00,06,11.70
2007,07,06,00,07,11.70
2007,07,06,00,08,11.70
2007,07,06,00,09,11.70
2007,07,06,00,10,11.70
2007,07,06,00,11,11.70
2007,07,06,00,12,11.70
2007,07,06,00,13,11.70
2007,07,06,01,02,11.70
2007,07,06,01,03,11.70
2007,07,06,01,04,11.60
2007,07,06,01,05,11.60
2007,07,06,01,06,11.70
2007,07,06,01,07,11.60
2007,07,06,01,08,11.70
2007,07,06,01,09,11.70
2007,07,06,01,10,11.70
2007,07,06,01,11,11.60
2007,07,06,01,12,11.60
2007,07,06,01,13,11.60
2007,07,06,01,14,11.60
2007,07,06,01,15,11.60
2007,07,06,01,16,11.60
2007,07,06,01,17,11.60
2007,07,06,01,18,11.60
2007,07,06,01,19,11.60
2007,07,06,01,20,11.60
2007,07,06,01,21,11.60
2007,07,06,01,22,11.60
2007,07,06,01,23,11.60
2007,07,06,01,24,11.60
2007,07,06,01,25,11.60
2007,07,06,01,26,11.50
2007,07,06,01,27,11.50
2007,07,06,01,28,11.50
2007,07,06,01,29,11.50
2007,07,06,01,30,11.50
2007,07,06,01,31,11.50
2007,07,06,01,32,11.50
2007,07,06,01,33,11.40
2007,07,06,01,34,11.40
2007,07,06,01,35,11.40
2007,07,06,01,36,11.40
2007,07,06,01,37,11.40
2007,07,06,01,38,11.40
2007,07,06,01,39,11.40
2007,07,06,01,40,11.40
2007,07,06,01,41,11.40
2007,07,06,01,42,11.50
2007,07,06,01,43,11.40
2007,07,06,01,44,11.40
2007,07,06,01,45,11.50
2007,07,06,01,46,11.40
2007,07,06,01,47,11.40
2007,07,06,01,48,11.40
2007,07,06,01,49,11.40
2007,07,06,01,50,11.40
2007,07,06,01,51,11.40
2007,07,06,01,52,11.40
2007,07,06,01,53,11.40
2007,07,06,01,54,11.40
2007,07,06,01,55,11.40
2007,07,06,01,56,11.40
2007,07,06,01,57,11.40
2007,07,06,01,58,11.40
2007,07,06,01,59,11.40
2007,07,06,02,00,11.40
2007,07,06,02,01,11.40
2007,07,06,02,02,11.40
2007,07,06,02,03,11.40
2007,07,06,02,04,11.40
2007,07,06,02,05,11.40
2007,07,06,02,06,11.40
2007,07,06,02,07,11.40
2007,07,06,02,08,11.40
2007,07,06,02,09,11.40
2007,07,06,02,10,11.30
2007,07,06,02,11,11.40
2007,07,06,02,12,11.30
2007,07,06,02,13,11.30
2007,07,06,02,14,11.40
2007,07,06,02,15,11.40
2007,07,06,02,16,11.30
2007,07,06,02,17,11.30
2007,07,06,02,18,11.30
2007,07,06,02,19,11.30
2007,07,06,02,20,11.30
2007,07,06,02,21,11.30
2007,07,06,02,22,11.30
2007,07,06,02,23,11.30
2007,07,06,02,24,11.30
2007,07,06,02,25,11.30
2007,07,06,02,26,11.40
2007,07,06,02,27,11.40
2007,07,06,02,28,11.40
2007,07,06,02,29,11.40
2007,07,06,02,30,11.40
2007,07,06,02,31,11.40
2007,07,06,02,32,11.40
2007,07,06,02,33,11.30
2007,07,06,02,34,11.30
2007,07,06,02,35,11.30
2007,07,06,02,36,11.30
2007,07,06,02,37,11.30
2007,07,06,02,38,11.30
2007,07,06,02,39,11.30
2007,07,06,02,40,11.40
2007,07,06,02,41,11.40
2007,07,06,02,42,11.40
2007,07,06,02,43,11.40
2007,07,06,02,44,11.40
2007,07,06,02,45,11.40
2007,07,06,02,46,11.40
2007,07,06,02,47,11.40
2007,07,06,02,48,11.40
2007,07,06,02,49,11.30
2007,07,06,02,50,11.30
2007,07,06,02,51,11.30
2007,07,06,02,52,11.30
2007,07,06,02,53,11.30
2007,07,06,02,54,11.30
2007,07,06,02,55,11.30
2007,07,06,02,56,11.30
2007,07,06,02,57,11.30
2007,07,06,02,58,11.30
2007,07,06,02,59,11.30
2007,07,06,03,00,11.30
2007,07,06,03,01,11.30
2007,07,06,03,02,11.30
2007,07,06,03,03,11.30
2007,07,06,03,04,11.30
2007,07,06,03,05,11.30
2007,07,06,03,06,11.30
2007,07,06,03,07,11.30
2007,07,06,03,08,11.20
2007,07,06,03,09,11.20
2007,07,06,03,10,11.20
2007,07,06,03,11,11.20
2007,07,06,03,12,11.20
2007,07,06,03,13,11.20
2007,07,06,03,14,11.20
2007,07,06,03,15,11.20
2007,07,06,03,16,11.20
2007,07,06,03,17,11.20
2007,07,06,03,18,11.20
2007,07,06,03,19,11.20
2007,07,06,03,20,11.20
2007,07,06,03,21,11.20
2007,07,06,03,22,11.20
2007,07,06,03,23,11.20
2007,07,06,03,24,11.20
2007,07,06,03,25,11.20
2007,07,06,03,26,11.20
2007,07,06,03,27,11.20
2007,07,06,03,28,11.20
2007,07,06,03,29,11.20
2007,07,06,03,30,11.20
2007,07,06,03,31,11.20
2007,07,06,03,32,11.20
2007,07,06,03,33,11.20
2007,07,06,03,34,11.20
2007,07,06,03,35,11.20
2007,07,06,03,36,11.20
2007,07,06,03,37,11.20
2007,07,06,03,38,11.20
2007,07,06,03,39,11.20
2007,07,06,03,40,11.20
2007,07,06,03,41,11.20
2007,07,06,03,42,11.20
2007,07,06,03,43,11.20
2007,07,06,03,44,11.20
2007,07,06,03,45,11.20
2007,07,06,03,46,11.20
2007,07,06,03,47,11.20
2007,07,06,03,48,11.20
2007,07,06,03,49,11.20
2007,07,06,03,50,11.20
2007,07,06,03,51,11.20
2007,07,06,03,52,11.20
2007,07,06,03,53,11.20
2007,07,06,03,54,11.20
2007,07,06,03,55,11.20
2007,07,06,03,56,11.20
2007,07,06,03,57,11.20
2007,07,06,03,58,11.20
2007,07,06,03,59,11.20
2007,07,06,04,00,11.20
2007,07,06,04,01,11.20
2007,07,06,04,02,11.20
2007,07,06,04,03,11.20
2007,07,06,04,04,11.20
2007,07,06,04,05,11.20
2007,07,06,04,06,11.20
2007,07,06,04,07,11.20
2007,07,06,04,08,11.20
2007,07,06,04,09,11.20
2007,07,06,04,10,11.20
2007,07,06,04,11,11.20
2007,07,06,04,12,11.20
2007,07,06,04,13,11.20
2007,07,06,04,14,11.20
2007,07,06,04,15,11.20
2007,07,06,04,16,11.20
2007,07,06,04,17,11.20
2007,07,06,04,18,11.20
2007,07,06,04,19,11.20
2007,07,06,04,20,11.20
2007,07,06,04,21,11.20
2007,07,06,04,22,11.20
2007,07,06,04,23,11.20
2007,07,06,04,24,11.20
2007,07,06,04,25,11.20
2007,07,06,04,26,11.20
2007,07,06,04,27,11.20
2007,07,06,04,28,11.20
2007,07,06,04,29,11.20
2007,07,06,04,30,11.20
2007,07,06,04,31,11.20
2007,07,06,04,32,11.20
2007,07,06,04,33,11.20
2007,07,06,04,34,11.20
2007,07,06,04,35,11.20
2007,07,06,04,36,11.20
2007,07,06,04,37,11.20
2007,07,06,04,38,11.20
2007,07,06,04,39,11.20
2007,07,06,04,40,11.10
2007,07,06,04,41,11.10
2007,07,06,04,42,11.10
2007,07,06,04,43,11.20
2007,07,06,04,44,11.20
2007,07,06,04,45,11.20
2007,07,06,04,46,11.20
2007,07,06,04,47,11.10
2007,07,06,04,48,11.20
2007,07,06,04,49,11.20
2007,07,06,04,50,11.20
2007,07,06,04,51,11.20
2007,07,06,04,52,11.20
2007,07,06,04,53,11.20
2007,07,06,04,54,11.20
2007,07,06,04,55,11.20
2007,07,06,04,56,11.20
2007,07,06,04,57,11.20
2007,07,06,04,58,11.20
2007,07,06,04,59,11.20
2007,07,06,05,00,11.20
2007,07,06,05,01,11.20
2007,07,06,05,02,11.20
2007,07,06,05,03,11.20
2007,07,06,05,04,11.20
2007,07,06,05,05,11.20
2007,07,06,05,06,11.20
2007,07,06,05,07,11.20
2007,07,06,05,08,11.20
2007,07,06,05,09,11.20
2007,07,06,05,10,11.20
2007,07,06,05,11,11.20
2007,07,06,05,12,11.20
2007,07,06,05,13,11.20
2007,07,06,05,14,11.20
2007,07,06,05,15,11.20
2007,07,06,05,16,11.20
2007,07,06,05,17,11.30
2007,07,06,05,18,11.30
2007,07,06,05,19,11.30
2007,07,06,05,20,11.30
2007,07,06,05,21,11.30
2007,07,06,05,22,11.20
2007,07,06,05,23,11.20
2007,07,06,05,24,11.20
2007,07,06,05,25,11.20
2007,07,06,05,26,11.20
2007,07,06,05,27,11.20
2007,07,06,05,28,11.20
2007,07,06,05,29,11.20
2007,07,06,05,30,11.20
2007,07,06,05,31,11.20
2007,07,06,05,32,11.20
2007,07,06,05,33,11.20
2007,07,06,05,34,11.20
2007,07,06,05,35,11.20
2007,07,06,05,36,11.20
2007,07,06,05,37,11.20
2007,07,06,05,38,11.20
2007,07,06,05,39,11.20
2007,07,06,05,40,11.20
2007,07,06,05,41,11.20
2007,07,06,05,42,11.20
2007,07,06,05,43,11.20
2007,07,06,05,44,11.20
2007,07,06,05,45,11.20
2007,07,06,05,46,11.20
2007,07,06,05,47,11.20
2007,07,06,05,48,11.20
2007,07,06,05,49,11.20
2007,07,06,05,50,11.20
2007,07,06,05,51,11.20
2007,07,06,05,52,11.20
2007,07,06,05,53,11.20
2007,07,06,05,54,11.30
2007,07,06,05,55,11.30
2007,07,06,05,56,11.30
2007,07,06,05,57,11.30
2007,07,06,05,58,11.30
2007,07,06,05,59,11.30
2007,07,06,06,00,11.30
2007,07,06,06,01,11.30
2007,07,06,06,02,11.30
2007,07,06,06,03,11.30
2007,07,06,06,04,11.30
2007,07,06,06,05,11.30
2007,07,06,06,06,11.30
2007,07,06,06,07,11.30
2007,07,06,06,08,11.30
2007,07,06,06,09,11.30
2007,07,06,06,10,11.30
2007,07,06,06,11,11.30
2007,07,06,06,12,11.30
2007,07,06,06,13,11.30
2007,07,06,06,14,11.30
2007,07,06,06,15,11.40
2007,07,06,06,16,11.40
2007,07,06,06,17,11.40
2007,07,06,06,18,11.40
2007,07,06,06,19,11.40
2007,07,06,06,20,11.40
2007,07,06,06,21,11.40
2007,07,06,06,22,11.40
2007,07,06,06,23,11.40
2007,07,06,06,24,11.40
2007,07,06,06,25,11.40
2007,07,06,06,26,11.40
2007,07,06,06,27,11.40
2007,07,06,06,28,11.50
2007,07,06,06,29,11.50
2007,07,06,06,30,11.50
2007,07,06,06,31,11.50
2007,07,06,06,32,11.60
2007,07,06,06,33,11.60
2007,07,06,06,34,11.60
2007,07,06,06,35,11.60
2007,07,06,06,36,11.60
2007,07,06,06,37,11.60
2007,07,06,06,38,11.60
2007,07,06,06,39,11.60
2007,07,06,06,40,11.60
2007,07,06,06,41,11.60
2007,07,06,06,42,11.60
2007,07,06,06,43,11.60
2007,07,06,06,44,11.70
2007,07,06,06,45,11.70
2007,07,06,06,46,11.70
2007,07,06,06,47,11.70
2007,07,06,06,48,11.70
2007,07,06,06,49,11.80
2007,07,06,06,50,11.80
2007,07,06,06,51,11.80
2007,07,06,06,52,11.80
2007,07,06,06,53,11.80
2007,07,06,06,54,11.80
2007,07,06,06,55,11.90
2007,07,06,06,56,11.90
2007,07,06,06,57,11.90
2007,07,06,06,58,11.90
2007,07,06,06,59,12.00
2007,07,06,07,00,12.00
2007,07,06,07,01,12.00
2007,07,06,07,02,12.10
2007,07,06,07,03,12.10
2007,07,06,07,04,12.10
2007,07,06,07,05,12.10
2007,07,06,07,06,12.10
2007,07,06,07,07,12.20
2007,07,06,07,08,12.20
2007,07,06,07,09,12.20
2007,07,06,07,10,12.20
2007,07,06,07,11,12.30
2007,07,06,07,12,12.30
2007,07,06,07,13,12.30
2007,07,06,07,14,12.30
2007,07,06,07,15,12.30
2007,07,06,07,16,12.30
2007,07,06,07,17,12.30
2007,07,06,07,18,12.30
2007,07,06,07,19,12.40
2007,07,06,07,20,12.40
2007,07,06,07,21,12.40
2007,07,06,07,22,12.40
2007,07,06,07,23,12.40
2007,07,06,07,24,12.50
2007,07,06,07,25,12.50
2007,07,06,07,26,12.50
2007,07,06,07,27,12.50
2007,07,06,07,28,12.60
2007,07,06,07,29,12.60
2007,07,06,07,30,12.60
2007,07,06,07,31,12.60
2007,07,06,07,32,12.60
2007,07,06,07,33,12.60
2007,07,06,07,34,12.60
2007,07,06,07,35,12.70
2007,07,06,07,36,12.70
2007,07,06,07,37,12.70
2007,07,06,07,38,12.80
2007,07,06,07,39,12.80
2007,07,06,07,40,12.80
2007,07,06,07,41,12.90
2007,07,06,07,42,12.90
2007,07,06,07,43,12.90
2007,07,06,07,44,13.00
2007,07,06,07,45,13.00
2007,07,06,07,46,13.00
2007,07,06,07,47,13.10
2007,07,06,07,48,13.10
2007,07,06,07,49,13.10
2007,07,06,07,50,13.20
2007,07,06,07,51,13.20
2007,07,06,07,52,13.30
2007,07,06,07,53,13.30
2007,07,06,07,54,13.30
2007,07,06,07,55,13.30
2007,07,06,07,56,13.30
2007,07,06,07,57,13.30
2007,07,06,07,58,13.30
2007,07,06,07,59,13.30
2007,07,06,08,00,13.30
2007,07,06,08,01,13.30
2007,07,06,08,02,13.40
2007,07,06,08,03,13.40
2007,07,06,08,04,13.40
2007,07,06,08,05,13.40
2007,07,06,08,06,13.40
2007,07,06,08,07,13.50
2007,07,06,08,08,13.50
2007,07,06,08,09,13.50
2007,07,06,08,10,13.60
2007,07,06,08,11,13.60
2007,07,06,08,12,13.60
2007,07,06,08,13,13.60
2007,07,06,08,14,13.70
2007,07,06,08,15,13.60
2007,07,06,08,16,13.60
2007,07,06,08,17,13.60
2007,07,06,08,18,13.60
2007,07,06,08,19,13.60
2007,07,06,08,20,13.70
2007,07,06,08,21,13.70
2007,07,06,08,22,13.80
2007,07,06,08,23,13.80
2007,07,06,08,24,13.80
2007,07,06,08,25,13.80
2007,07,06,08,26,13.80
2007,07,06,08,27,13.80
2007,07,06,08,28,13.80
2007,07,06,08,29,13.90
2007,07,06,08,30,13.90
2007,07,06,08,31,13.90
2007,07,06,08,32,14.00
2007,07,06,08,33,14.00
2007,07,06,08,34,14.10
2007,07,06,08,35,14.10
2007,07,06,08,36,14.10
2007,07,06,08,37,14.10
2007,07,06,08,38,14.10
2007,07,06,08,39,14.10
2007,07,06,08,40,14.10
2007,07,06,08,41,14.10
2007,07,06,08,42,14.10
2007,07,06,08,43,14.10
2007,07,06,08,44,14.10
2007,07,06,08,45,14.10
2007,07,06,08,46,14.20
2007,07,06,08,47,14.10
2007,07,06,08,48,14.20
2007,07,06,08,49,14.20
2007,07,06,08,50,14.20
2007,07,06,08,51,14.20
2007,07,06,08,52,14.30
2007,07,06,08,53,14.30
2007,07,06,08,54,14.40
2007,07,06,08,55,14.40
2007,07,06,08,56,14.50
2007,07,06,08,57,14.60
2007,07,06,08,58,14.70
2007,07,06,08,59,14.80
2007,07,06,09,00,14.80
2007,07,06,09,01,14.80
2007,07,06,09,02,14.80
2007,07,06,09,03,14.80
2007,07,06,09,04,14.80
2007,07,06,09,05,14.80
2007,07,06,09,06,14.80
2007,07,06,09,07,14.90
2007,07,06,09,08,15.00
2007,07,06,09,09,15.00
2007,07,06,09,10,15.00
2007,07,06,09,11,15.00
2007,07,06,09,12,14.90
2007,07,06,09,13,15.00
2007,07,06,09,14,15.00
2007,07,06,09,15,15.00
2007,07,06,09,16,15.00
2007,07,06,09,17,15.00
2007,07,06,09,18,15.00
2007,07,06,09,19,15.00
2007,07,06,09,20,15.00
2007,07,06,09,21,15.00
2007,07,06,09,22,15.00
2007,07,06,09,23,15.20
2007,07,06,09,24,15.30
2007,07,06,09,25,15.30
2007,07,06,09,26,15.30
2007,07,06,09,27,15.30
2007,07,06,09,28,15.20
2007,07,06,09,29,15.20
2007,07,06,09,30,15.20
2007,07,06,09,31,15.20
2007,07,06,09,32,15.30
2007,07,06,09,33,15.30
2007,07,06,09,34,15.40
2007,07,06,09,35,15.40
2007,07,06,09,36,15.40
2007,07,06,09,37,15.40
2007,07,06,09,38,15.40
2007,07,06,09,39,15.40
2007,07,06,09,40,15.50
2007,07,06,09,41,15.60
2007,07,06,09,42,15.60
2007,07,06,09,43,15.60
2007,07,06,09,44,15.60
2007,07,06,09,45,15.50
2007,07,06,09,46,15.50
2007,07,06,09,47,15.50
2007,07,06,09,48,15.60
2007,07,06,09,49,15.60
2007,07,06,09,50,15.70
2007,07,06,09,51,15.70
2007,07,06,09,52,15.70
2007,07,06,09,53,15.80
2007,07,06,09,54,15.80
2007,07,06,09,55,15.80
2007,07,06,09,56,15.80
2007,07,06,09,57,15.90
2007,07,06,09,58,16.00
2007,07,06,09,59,16.10
2007,07,06,10,00,16.10
2007,07,06,10,01,16.10
2007,07,06,10,02,16.20
2007,07,06,10,03,16.20
2007,07,06,10,04,16.20
2007,07,06,10,05,16.20
2007,07,06,10,06,16.10
2007,07,06,10,07,16.10
2007,07,06,10,08,16.20
2007,07,06,10,09,16.10
2007,07,06,10,10,16.10
2007,07,06,10,11,16.10
2007,07,06,10,12,16.10
2007,07,06,10,13,16.10
2007,07,06,10,14,16.10
2007,07,06,10,15,16.10
2007,07,06,10,16,16.10
2007,07,06,10,17,16.10
2007,07,06,10,18,16.10
2007,07,06,10,19,16.20
2007,07,06,10,20,16.20
2007,07,06,10,21,16.30
2007,07,06,10,22,16.40
2007,07,06,10,23,16.40
2007,07,06,10,24,16.40
2007,07,06,10,25,16.50
2007,07,06,10,26,16.50
2007,07,06,10,27,16.60
2007,07,06,10,28,16.70
2007,07,06,10,29,16.70
2007,07,06,10,30,16.80
2007,07,06,10,31,16.90
2007,07,06,10,32,17.00
2007,07,06,10,33,16.90
2007,07,06,10,34,16.90
2007,07,06,10,35,16.90
2007,07,06,10,36,16.90
2007,07,06,10,37,16.90
2007,07,06,10,38,17.00
2007,07,06,10,39,16.90
2007,07,06,10,40,16.80
2007,07,06,10,41,16.90
2007,07,06,10,42,16.90
2007,07,06,10,43,17.00
2007,07,06,10,44,17.10
2007,07,06,10,45,17.20
2007,07,06,10,46,17.20
2007,07,06,10,47,17.30
2007,07,06,10,48,17.40
2007,07,06,10,49,17.50
2007,07,06,10,50,17.50
2007,07,06,10,51,17.50
2007,07,06,10,52,17.40
2007,07,06,10,53,17.40
2007,07,06,10,54,17.40
2007,07,06,10,55,17.30
2007,07,06,10,56,17.40
2007,07,06,10,57,17.60
2007,07,06,10,58,17.60
2007,07,06,10,59,17.70
2007,07,06,11,00,17.70
2007,07,06,11,01,17.70
2007,07,06,11,02,17.80
2007,07,06,11,03,17.90
2007,07,06,11,04,18.10
2007,07,06,11,05,18.20
2007,07,06,11,06,18.20
2007,07,06,11,07,18.20
2007,07,06,11,08,18.20
2007,07,06,11,09,18.20
2007,07,06,11,10,18.30
2007,07,06,11,11,18.40
2007,07,06,11,12,18.40
2007,07,06,11,13,18.50
2007,07,06,11,14,18.70
2007,07,06,11,15,18.70
2007,07,06,11,16,18.80
2007,07,06,11,17,18.70
2007,07,06,11,18,18.70
2007,07,06,11,19,18.70
2007,07,06,11,20,18.80
2007,07,06,11,21,18.90
2007,07,06,11,22,18.90
2007,07,06,11,23,18.90
2007,07,06,11,24,18.90
2007,07,06,11,25,19.00
2007,07,06,11,26,19.00
2007,07,06,11,27,19.10
2007,07,06,11,28,19.10
2007,07,06,11,29,19.20
2007,07,06,11,30,19.30
2007,07,06,11,31,19.30
2007,07,06,11,32,19.40
2007,07,06,11,33,19.40
2007,07,06,11,34,19.40
2007,07,06,11,35,19.50
2007,07,06,11,36,19.50
2007,07,06,11,37,19.60
2007,07,06,11,38,19.60
2007,07,06,11,39,19.60
2007,07,06,11,40,19.60
2007,07,06,11,41,19.50
2007,07,06,11,42,19.40
2007,07,06,11,43,19.50
2007,07,06,11,44,19.60
2007,07,06,11,45,19.70
2007,07,06,11,46,19.80
2007,07,06,11,47,20.00
2007,07,06,11,48,20.10
2007,07,06,11,49,20.10
2007,07,06,11,50,20.10
2007,07,06,11,51,20.00
2007,07,06,11,52,20.00
2007,07,06,11,53,20.10
2007,07,06,11,54,20.00
2007,07,06,11,55,20.00
2007,07,06,11,56,19.90
2007,07,06,11,57,19.80
2007,07,06,11,58,19.80
2007,07,06,11,59,19.80
2007,07,06,12,00,19.80
2007,07,06,12,01,19.90
2007,07,06,12,02,19.90
2007,07,06,12,03,19.90
2007,07,06,12,04,19.90
2007,07,06,12,05,19.80
2007,07,06,12,06,19.70
2007,07,06,12,07,19.70
2007,07,06,12,08,19.80
2007,07,06,12,09,19.80
2007,07,06,12,10,19.90
2007,07,06,12,11,20.00
2007,07,06,12,12,20.00
2007,07,06,12,13,20.00
2007,07,06,12,14,20.10
2007,07,06,12,15,20.10
2007,07,06,12,16,20.00
2007,07,06,12,17,19.80
2007,07,06,12,18,19.80
2007,07,06,12,19,19.90
2007,07,06,12,20,20.00
2007,07,06,12,21,19.90
2007,07,06,12,22,19.80
2007,07,06,12,23,19.70
2007,07,06,12,24,19.60
2007,07,06,12,25,19.60
2007,07,06,12,26,19.60
2007,07,06,12,27,19.50
2007,07,06,12,28,19.50
2007,07,06,12,29,19.60
2007,07,06,12,30,19.60
2007,07,06,12,31,19.60
2007,07,06,12,32,19.60
2007,07,06,12,33,19.70
2007,07,06,12,34,19.80
2007,07,06,12,35,19.90
2007,07,06,12,36,19.90
2007,07,06,12,37,19.80
2007,07,06,12,38,19.80
2007,07,06,12,39,19.70
2007,07,06,12,40,19.70
2007,07,06,12,41,19.70
2007,07,06,12,42,19.80
2007,07,06,12,43,19.80
2007,07,06,12,44,19.80
2007,07,06,12,45,19.80
2007,07,06,12,46,19.70
2007,07,06,12,47,19.70
2007,07,06,12,48,19.70
2007,07,06,12,49,19.80
2007,07,06,12,50,19.90
2007,07,06,12,51,20.00
2007,07,06,12,52,20.00
2007,07,06,12,53,20.00
2007,07,06,12,54,19.90
2007,07,06,12,55,19.80
2007,07,06,12,56,19.80
2007,07,06,12,57,19.80
2007,07,06,12,58,20.00
2007,07,06,12,59,20.10
2007,07,06,13,00,20.20
2007,07,06,13,01,20.20
2007,07,06,13,02,20.30
2007,07,06,13,03,20.40
2007,07,06,13,04,20.60
2007,07,06,13,05,20.70
2007,07,06,13,06,20.70
2007,07,06,13,07,20.70
2007,07,06,13,08,20.80
2007,07,06,13,09,20.80
2007,07,06,13,10,20.80
2007,07,06,13,11,20.80
2007,07,06,13,12,20.80
2007,07,06,13,13,20.80
2007,07,06,13,14,20.60
2007,07,06,13,15,20.40
2007,07,06,13,16,20.20
2007,07,06,13,17,20.00
2007,07,06,13,18,20.00
2007,07,06,13,19,20.00
2007,07,06,13,20,20.10
2007,07,06,13,21,20.20
2007,07,06,13,22,20.20
2007,07,06,13,23,20.20
2007,07,06,13,24,20.10
2007,07,06,13,25,20.00
2007,07,06,13,26,20.00
2007,07,06,13,27,20.00
2007,07,06,13,28,20.00
2007,07,06,13,29,20.10
2007,07,06,13,30,20.10
2007,07,06,13,31,20.10
2007,07,06,13,32,20.10
2007,07,06,13,33,20.10
2007,07,06,13,34,19.90
2007,07,06,13,35,19.80
2007,07,06,13,36,19.80
2007,07,06,13,37,19.70
2007,07,06,13,38,19.70
2007,07,06,13,39,19.80
2007,07,06,13,40,19.80
2007,07,06,13,41,19.70
2007,07,06,13,42,19.70
2007,07,06,13,43,19.60
2007,07,06,13,44,19.70
2007,07,06,13,45,19.70
2007,07,06,13,46,19.60
2007,07,06,13,47,19.50
2007,07,06,13,48,19.60
2007,07,06,13,49,19.60
2007,07,06,13,50,19.60
2007,07,06,13,51,19.60
2007,07,06,13,52,19.60
2007,07,06,13,53,19.80
2007,07,06,13,54,19.80
2007,07,06,13,55,19.80
2007,07,06,13,56,19.80
2007,07,06,13,57,19.80
2007,07,06,13,58,19.70
2007,07,06,13,59,19.70
2007,07,06,14,00,19.70
2007,07,06,14,01,19.80
2007,07,06,14,02,19.80
2007,07,06,14,03,19.80
2007,07,06,14,04,19.80
2007,07,06,14,05,19.70
2007,07,06,14,06,19.90
2007,07,06,14,07,20.00
2007,07,06,14,08,20.10
2007,07,06,14,09,20.20
2007,07,06,14,10,20.00
2007,07,06,14,11,19.90
2007,07,06,14,12,19.90
2007,07,06,14,13,19.90
2007,07,06,14,14,19.90
2007,07,06,14,15,19.80
2007,07,06,14,16,19.70
2007,07,06,14,17,19.60
2007,07,06,14,18,19.60
2007,07,06,14,19,19.70
2007,07,06,14,20,19.50
2007,07,06,14,21,19.40
2007,07,06,14,22,19.40
2007,07,06,14,23,19.40
2007,07,06,14,24,19.50
2007,07,06,14,25,19.50
2007,07,06,14,26,19.40
2007,07,06,14,27,19.30
2007,07,06,14,28,19.30
2007,07,06,14,29,19.30
2007,07,06,14,30,19.20
2007,07,06,14,31,19.10
2007,07,06,14,32,18.90
2007,07,06,14,33,18.80
2007,07,06,14,34,18.80
2007,07,06,14,35,18.80
2007,07,06,14,36,18.70
2007,07,06,14,37,18.70
2007,07,06,14,38,18.80
2007,07,06,14,39,18.80
2007,07,06,14,40,18.90
2007,07,06,14,41,18.80
2007,07,06,14,42,18.70
2007,07,06,14,43,18.70
2007,07,06,14,44,18.70
2007,07,06,14,45,18.70
2007,07,06,14,46,18.70
2007,07,06,14,47,18.70
2007,07,06,14,48,18.70
2007,07,06,14,49,18.80
2007,07,06,14,50,18.90
2007,07,06,14,51,19.00
2007,07,06,14,52,19.00
2007,07,06,14,53,19.00
2007,07,06,14,54,18.90
2007,07,06,14,55,19.00
2007,07,06,14,56,18.90
2007,07,06,14,57,19.00
2007,07,06,14,58,19.10
2007,07,06,14,59,19.00
2007,07,06,15,00,18.90
2007,07,06,15,01,18.80
2007,07,06,15,02,18.70
2007,07,06,15,03,18.70
2007,07,06,15,04,18.70
2007,07,06,15,05,18.60
2007,07,06,15,06,18.70
2007,07,06,15,07,18.70
2007,07,06,15,08,18.80
2007,07,06,15,09,18.90
2007,07,06,15,10,19.00
2007,07,06,15,11,19.10
2007,07,06,15,12,19.20
2007,07,06,15,13,19.10
2007,07,06,15,14,19.00
2007,07,06,15,15,19.00
2007,07,06,15,16,18.90
2007,07,06,15,17,18.80
2007,07,06,15,18,18.60
2007,07,06,15,19,18.60
2007,07,06,15,20,18.50
2007,07,06,15,21,18.40
2007,07,06,15,22,18.50
2007,07,06,15,23,18.40
2007,07,06,15,24,18.40
2007,07,06,15,25,18.30
2007,07,06,15,26,18.30
2007,07,06,15,27,18.30
2007,07,06,15,28,18.20
2007,07,06,15,29,18.20
2007,07,06,15,30,18.20
2007,07,06,15,31,18.20
2007,07,06,15,32,18.20
2007,07,06,15,33,18.20
2007,07,06,15,34,18.20
2007,07,06,15,35,18.10
2007,07,06,15,36,18.00
2007,07,06,15,37,18.00
2007,07,06,15,38,18.00
2007,07,06,15,39,18.10
2007,07,06,15,40,18.30
2007,07,06,15,41,18.40
2007,07,06,15,42,18.40
2007,07,06,15,43,18.50
2007,07,06,15,44,18.50
2007,07,06,15,45,18.50
2007,07,06,15,46,18.40
2007,07,06,15,47,18.30
2007,07,06,15,48,18.40
2007,07,06,15,49,18.50
2007,07,06,15,50,18.60
2007,07,06,15,51,18.60
2007,07,06,15,52,18.60
2007,07,06,15,53,18.70
2007,07,06,15,54,18.80
2007,07,06,15,55,18.80
2007,07,06,15,56,18.90
2007,07,06,15,57,18.90
2007,07,06,15,58,19.00
2007,07,06,15,59,19.10
2007,07,06,16,00,19.10
2007,07,06,16,01,19.30
2007,07,06,16,02,19.50
2007,07,06,16,03,19.60
2007,07,06,16,04,19.70
2007,07,06,16,05,19.80
2007,07,06,16,06,19.80
2007,07,06,16,07,19.80
2007,07,06,16,08,19.80
2007,07,06,16,09,19.90
2007,07,06,16,10,19.90
2007,07,06,16,11,19.90
2007,07,06,16,12,20.00
2007,07,06,16,13,20.00
2007,07,06,16,14,19.90
2007,07,06,16,15,19.80
2007,07,06,16,16,19.80
2007,07,06,16,17,20.00
2007,07,06,16,18,20.10
2007,07,06,16,19,20.10
2007,07,06,16,20,20.20
2007,07,06,16,21,20.30
2007,07,06,16,22,20.30
2007,07,06,16,23,20.30
2007,07,06,16,24,20.40
2007,07,06,16,25,20.50
2007,07,06,16,26,20.60
2007,07,06,16,27,20.70
2007,07,06,16,28,20.80
2007,07,06,16,29,20.80
2007,07,06,16,30,20.90
2007,07,06,16,31,21.00
2007,07,06,16,32,21.00
2007,07,06,16,33,21.10
2007,07,06,16,34,21.10
2007,07,06,16,35,21.10
2007,07,06,16,36,21.10
2007,07,06,16,37,21.10
2007,07,06,16,38,21.10
2007,07,06,16,39,21.20
2007,07,06,16,40,21.20
2007,07,06,16,41,21.20
2007,07,06,16,42,21.30
2007,07,06,16,43,21.20
2007,07,06,16,44,21.20
2007,07,06,16,45,21.10
2007,07,06,16,46,21.00
2007,07,06,16,47,20.90
2007,07,06,16,48,20.90
2007,07,06,16,49,20.90
2007,07,06,16,50,20.80
2007,07,06,16,51,20.80
2007,07,06,16,52,20.80
2007,07,06,16,53,20.80
2007,07,06,16,54,20.80
2007,07,06,16,55,20.80
2007,07,06,16,56,20.80
2007,07,06,16,57,20.70
2007,07,06,16,58,20.70
2007,07,06,16,59,20.80
2007,07,06,17,00,20.80
2007,07,06,17,01,20.90
2007,07,06,17,02,20.90
2007,07,06,17,03,20.90
2007,07,06,17,04,20.80
2007,07,06,17,05,20.80
2007,07,06,17,06,20.80
2007,07,06,17,07,20.80
2007,07,06,17,08,20.70
2007,07,06,17,09,20.70
2007,07,06,17,10,20.70
2007,07,06,17,11,20.60
2007,07,06,17,12,20.50
2007,07,06,17,13,20.50
2007,07,06,17,14,20.60
2007,07,06,17,15,20.70
2007,07,06,17,16,20.70
2007,07,06,17,17,20.70
2007,07,06,17,18,20.80
2007,07,06,17,19,20.80
2007,07,06,17,20,20.70
2007,07,06,17,21,20.70
2007,07,06,17,22,20.80
2007,07,06,17,23,20.80
2007,07,06,17,24,20.80
2007,07,06,17,25,20.80
2007,07,06,17,26,20.70
2007,07,06,17,27,20.60
2007,07,06,17,28,20.50
2007,07,06,17,29,20.40
2007,07,06,17,30,20.30
2007,07,06,17,31,20.10
2007,07,06,17,32,20.10
2007,07,06,17,33,20.10
2007,07,06,17,34,20.20
2007,07,06,17,35,20.20
2007,07,06,17,36,20.30
2007,07,06,17,37,20.40
2007,07,06,17,38,20.40
2007,07,06,17,39,20.40
2007,07,06,17,40,20.40
2007,07,06,17,41,20.40
2007,07,06,17,42,20.40
2007,07,06,17,43,20.30
2007,07,06,17,44,20.20
2007,07,06,17,45,20.20
2007,07,06,17,46,20.20
2007,07,06,17,47,20.20
2007,07,06,17,48,20.20
2007,07,06,17,49,20.30
2007,07,06,17,50,20.40
2007,07,06,17,51,20.50
2007,07,06,17,52,20.70
2007,07,06,17,53,20.70
2007,07,06,17,54,20.70
2007,07,06,17,55,20.40
2007,07,06,17,56,20.00
2007,07,06,17,57,19.80
2007,07,06,17,58,19.60
2007,07,06,17,59,19.60
2007,07,06,18,00,19.50
2007,07,06,18,01,19.40
2007,07,06,18,02,19.30
2007,07,06,18,03,19.30
2007,07,06,18,04,19.40
2007,07,06,18,05,19.40
2007,07,06,18,06,19.40
2007,07,06,18,07,19.40